Location: S�tio Afonso Gruber
(26.1760°S, 49.5250°W)
Time: 14:23:26
(UTC+00:00)

Cosmos 1603 - Pass Details

Date: 07 June 2020
Orbit: 829 x 861 km, 71.0° (Epoch: 07 July)

Event Time Altitude Azimuth Distance (km) Brightness Sun altitude
Exits shadow 07:41:41 47° 145° (SE) 1,095 4.3 -30.4°
Maximum altitude 07:42:38 53° 111° (ESE) 1,022 4.3 -30.1°
Drops below altitude 10° 07:48:04 10° 34° (NE) 2,429 6.6 -29.0°
Sets 07:50:32 0° 29° (NNE) 3,356 7.4 -28.4°
